CW1490 Weather Reports


Display with metric or nautical units.
time (UTC)temp
F
wind
direction
speed
MPH
gust
MPH
rain 1hr
in
rain 24hr
in
rain mn
in
humidity
%
barometer
mb
20180217232716 34 197 5.0 11.0 0.00 0.00 0.00 46 1022.5
20180217231212 34 174 4.0 8.0 0.00 0.00 0.00 49 1022.5
20180217225715 34 206 4.0 7.0 0.00 0.00 0.00 48 1022.2
20180217224214 34 187 2.0 5.0 0.00 0.00 0.00 47 1022.6
20180217222713 34 196 1.0 4.0 0.00 0.00 0.00 45 1022.9
20180217221213 35 183 3.0 5.0 0.00 0.00 0.00 44 1023.0
20180217215711 35 197 3.0 9.0 0.00 0.00 0.00 44 1023.0
20180217214209 35 204 3.0 9.0 0.00 0.00 0.00 43 1022.8
20180217212712 35 161 4.0 10.0 0.00 0.00 0.00 42 1023.1
20180217211208 35 195 5.0 10.0 0.00 0.00 0.00 40 1023.6
20180217205708 36 178 7.0 16.0 0.00 0.00 0.00 39 1023.4
20180217204206 36 187 4.0 10.0 0.00 0.00 0.00 38 1023.8
20180217202711 36 190 3.0 8.0 0.00 0.00 0.00 36 1024.1
20180217201207 36 164 4.0 10.0 0.00 0.00 0.00 35 1024.0
20180217195707 36 217 5.0 9.0 0.00 0.00 0.00 34 1024.0
20180217194203 36 175 6.0 9.0 0.00 0.00 0.00 35 1024.2
20180217192703 36 165 8.0 14.0 0.00 0.00 0.00 33 1024.4
20180217191206 36 187 8.0 13.0 0.00 0.00 0.00 32 1024.5
20180217185701 36 200 7.0 12.0 0.00 0.00 0.00 36 1024.2
20180217184200 36 189 4.0 12.0 0.00 0.00 0.00 38 1024.2
20180217182658 35 189 5.0 9.0 0.00 0.00 0.00 37 1024.8
20180217181157 35 196 7.0 11.0 0.00 0.00 0.00 39 1025.4
20180217175654 35 163 7.0 15.0 0.00 0.00 0.00 43 1025.9
20180217174354 35 248 4.0 12.0 0.00 0.00 0.00 44 1025.7
20180217172651 34 213 6.0 11.0 0.00 0.00 0.00 44 1026.1
20180217171151 33 211 4.0 8.0 0.00 0.00 0.00 43 1026.3
20180217165647 33 133 1.0 8.0 0.00 0.00 0.00 44 1026.6
20180217164145 33 205 3.0 8.0 0.00 0.00 0.00 45 1027.3
20180217162648 32 160 0.0 7.0 0.00 0.00 0.00 46 1027.8
20180217161143 31 281 0.0 7.0 0.00 0.00 0.00 50 1027.6
20180217155642 31 181 3.0 8.0 0.00 0.00 0.00 48 1027.9
20180217154137 30 191 2.0 4.0 0.00 0.00 0.00 50 1027.8
20180217152636 29 46 2.0 4.0 0.00 0.00 0.00 51 1028.2
20180217151132 28 36 2.0 4.0 0.00 0.00 0.00 50 1028.4
20180217145629 28 58 2.0 7.0 0.00 0.00 0.00 52 1028.3
20180217144126 28 37 3.0 5.0 0.00 0.00 0.00 53 1028.3
20180217142623 27 48 2.0 5.0 0.00 0.00 0.00 54 1028.4
20180217141119 26 21 3.0 6.0 0.00 0.00 0.00 58 1028.2
20180217135617 25 62 3.0 5.0 0.00 0.00 0.00 62 1028.4
20180217134112 24 31 2.0 4.0 0.00 0.00 0.00 65 1028.3
20180217132609 23 41 1.0 3.0 0.00 0.00 0.00 70 1028.9
20180217131104 22 20 3.0 5.0 0.00 0.00 0.00 78 1029.1
20180217125601 20 37 3.0 5.0 0.00 0.00 0.00 82 1029.2
20180217124100 19 346 2.0 3.0 0.00 0.00 0.00 84 1029.4
20180217122553 19 226 0.0 0.0 0.00 0.00 0.00 85 1029.3
20180217121050 19 226 0.0 2.0 0.00 0.00 0.00 83 1029.2
20180217115550 19 226 2.0 3.0 0.00 0.02 0.00 84 1028.9
20180217114047 19 308 2.0 3.0 0.00 0.02 0.00 82 1028.5
20180217112543 19 308 0.0 2.0 0.00 0.02 0.00 84 1028.2
20180217111042 19 349 0.0 2.0 0.00 0.02 0.00 83 1027.9
20180217105537 20 345 0.0 0.0 0.00 0.04 0.00 82 1027.6
20180217104035 21 4 0.0 0.0 0.00 0.04 0.00 78 1027.4
20180217102639 21 4 0.0 0.0 0.00 0.04 0.00 81 1027.3
20180217101030 21 4 0.0 0.0 0.00 0.04 0.00 80 1027.1
20180217095527 22 4 0.0 0.0 0.00 0.05 0.00 73 1026.8
20180217094024 22 4 0.0 1.0 0.00 0.05 0.00 77 1026.3
20180217092523 22 25 0.0 3.0 0.00 0.05 0.00 76 1025.7
20180217091015 23 24 1.0 3.0 0.00 0.05 0.00 72 1025.0
20180217085511 23 16 0.0 0.0 0.00 0.05 0.00 72 1024.3
20180217084009 24 16 0.0 0.0 0.00 0.05 0.00 71 1024.1
20180217082507 25 16 1.0 4.0 0.00 0.05 0.00 67 1024.1
20180217081007 26 354 1.0 3.0 0.00 0.05 0.00 61 1023.9
20180217075502 26 305 1.0 5.0 0.00 0.05 0.00 62 1023.6
20180217073959 26 303 2.0 4.0 0.00 0.05 0.00 61 1023.5
20180217072455 26 300 1.0 4.0 0.00 0.05 0.00 63 1023.0
20180217070955 27 323 2.0 6.0 0.00 0.05 0.00 61 1022.6
20180217065450 27 310 1.0 4.0 0.00 0.05 0.00 60 1022.2
20180217063947 28 347 2.0 5.0 0.00 0.05 0.00 59 1021.7
20180217062447 28 305 1.0 6.0 0.00 0.05 0.00 59 1021.5
20180217060943 28 341 2.0 5.0 0.00 0.05 0.00 59 1021.1
20180217055439 28 314 3.0 10.0 0.00 0.05 0.00 60 1020.6
20180217053934 29 341 3.0 9.0 0.00 0.05 0.00 59 1020.6
20180217052430 29 354 1.0 9.0 0.00 0.05 0.00 58 1020.3
20180217050930 30 310 3.0 13.0 0.00 0.05 0.00 57 1020.2
20180217045424 30 354 5.0 13.0 0.00 0.05 0.05 56 1019.8
20180217043920 30 308 10.0 16.0 0.00 0.05 0.05 56 1019.5
20180217042421 30 58 7.0 12.0 0.00 0.05 0.05 57 1018.9
20180217040915 31 341 6.0 13.0 0.00 0.05 0.05 56 1018.4
20180217035411 31 4 1.0 10.0 0.00 0.05 0.05 59 1018.2
20180217033908 32 32 3.0 15.0 0.00 0.05 0.05 59 1017.8
20180217032406 32 336 2.0 13.0 0.00 0.05 0.05 61 1017.5
20180217031004 33 4 4.0 15.0 0.00 0.05 0.05 63 1017.0
20180217025400 32 268 2.0 13.0 0.00 0.05 0.05 69 1016.4
20180217023856 32 55 3.0 5.0 0.00 0.05 0.05 79 1016.0
20180217022355 32 319 1.0 6.0 0.00 0.05 0.05 79 1015.5
20180217020849 33 80 5.0 11.0 0.00 0.05 0.05 79 1015.0
20180217015347 34 45 7.0 13.0 0.00 0.05 0.05 80 1014.7
20180217013847 35 79 5.0 8.0 0.00 0.05 0.05 77 1014.1
20180217012341 36 21 5.0 21.0 0.00 0.05 0.05 67 1013.7
20180217010839 37 19 5.0 18.0 0.00 0.05 0.05 63 1012.8
20180217005335 37 31 8.0 18.0 0.00 0.05 0.05 64 1012.3
20180217003832 37 25 6.0 14.0 0.00 0.05 0.05 68 1011.8
20180217002330 38 19 10.0 20.0 0.00 0.05 0.05 61 1011.3
20180217000826 39 10 5.0 18.0 0.00 0.05 0.05 61 1010.9
20180216235323 39 319 6.0 13.0 0.00 0.05 0.05 64 1010.4
20180216233819 40 318 4.0 15.0 0.00 0.05 0.05 64 1009.6